QPF
0.01 0.00 0.00 0.00 0.00 0.00 0.00 0.01 0.01 0.00 0.00 0.00 0.00 0.00 0.00 0.00 0.00 0.00 0.00 0.00 0.00 0.00 0.00 0.00 0.00 0.00 0.00 0.00 0.00 0.00 0.00 0.00 0.00 0.00 0.00 0.00 0.00 0.00 0.00 0.01 0.03 0.03 0.00
0.00 0.00 0.00 0.00 0.01 0.01 0.01 0.01 0.01 0.01 0.01 0.00 0.00 0.00 0.00 0.00 0.00 0.00 0.00 0.00 0.00 0.00 0.00 0.00 0.01 0.00 0.00 0.00 0.00 0.00 0.00 0.00 0.00 0.00 0.00 0.00 0.00 0.00 0.00 0.01 0.04 0.03 0.00
0.00 0.00 0.00 0.00 0.00 0.01 0.01 0.02 0.02 0.01 0.01 0.00 0.00 0.00 0.01 0.01 0.01 0.00 0.00 0.00 0.00 0.00 0.00 0.00 0.00 0.00 0.00 0.00 0.00 0.00 0.00 0.00 0.00 0.01 0.03 0.03 0.01 0.00 0.00 0.00 0.01 0.01 0.00
0.01 0.01 0.00 0.00 0.00 0.01 0.01 0.02 0.02 0.01 0.01 0.01 0.01 0.01 0.01 0.01 0.01 0.00 0.01 0.01 0.00 0.00 0.00 0.00 0.00 0.00 0.00 0.00 0.00 0.00 0.00 0.00 0.01 0.02 0.08 0.08 0.04 0.01 0.00 0.00 0.00 0.00 0.00
0.00 0.01 0.00 0.00 0.00 0.01 0.01 0.01 0.02 0.01 0.01 0.01 0.01 0.01 0.01 0.01 0.01 0.00 0.01 0.01 0.01 0.00 0.00 0.00 0.00 0.00 0.00 0.00 0.00 0.00 0.00 0.00 0.01 0.04 0.08 0.12 0.10 0.04 0.01 0.00 0.00 0.00 0.00
0.01 0.02 0.01 0.00 0.00 0.01 0.01 0.02 0.01 0.01 0.01 0.01 0.01 0.01 0.01 0.01 0.01 0.01 0.01 0.01 0.01 0.00 0.00 0.00 0.00 0.00 0.00 0.00 0.00 0.00 0.00 0.01 0.02 0.04 0.06 0.10 0.07 0.05 0.01 0.00 0.01 0.01 0.01
0.01 0.02 0.01 0.00 0.01 0.01 0.01 0.02 0.02 0.02 0.02 0.02 0.02 0.02 0.01 0.01 0.01 0.01 0.01 0.01 0.01 0.01 0.01 0.01 0.01 0.01 0.01 0.00 0.00 0.00 0.01 0.01 0.04 0.07 0.06 0.04 0.04 0.03 0.02 0.01 0.02 0.02 0.02
0.01 0.02 0.02 0.01 0.02 0.02 0.02 0.02 0.03 0.03 0.03 0.02 0.02 0.02 0.02 0.01 0.01 0.01 0.01 0.01 0.01 0.01 0.01 0.01 0.01 0.01 0.01 0.00 0.00 0.00 0.01 0.01 0.04 0.05 0.07 0.06 0.04 0.02 0.02 0.02 0.03 0.04 0.03
0.02 0.03 0.03 0.03 0.03 0.04 0.04 0.04 0.04 0.04 0.04 0.04 0.04 0.03 0.03 0.03 0.02 0.02 0.02 0.02 0.02 0.02 0.01 0.01 0.01 0.00 0.00 0.00 0.00 0.00 0.00 0.01 0.02 0.04 0.13 0.20 0.07 0.03 0.03 0.02 0.02 0.02 0.03
0.04 0.04 0.05 0.06 0.06 0.06 0.05 0.05 0.05 0.04 0.04 0.04 0.04 0.04 0.03 0.03 0.03 0.03 0.03 0.03 0.03 0.03 0.03 0.02 0.02 0.01 0.01 0.01 0.01 0.01 0.01 0.01 0.02 0.06 0.12 0.15 0.08 0.04 0.04 0.04 0.03 0.03 0.03
0.04 0.06 0.07 0.06 0.09 0.13 0.10 0.06 0.05 0.05 0.05 0.05 0.06 0.04 0.05 0.08 0.10 0.10 0.08 0.06 0.04 0.04 0.03 0.04 0.03 0.02 0.02 0.01 0.02 0.01 0.01 0.04 0.07 0.14 0.26 0.26 0.16 0.06 0.04 0.05 0.04 0.04 0.06
0.05 0.06 0.07 0.08 0.10 0.11 0.14 0.12 0.11 0.09 0.10 0.10 0.13 0.09 0.09 0.15 0.17 0.15 0.12 0.08 0.08 0.06 0.05 0.06 0.05 0.04 0.03 0.04 0.07 0.04 0.02 0.04 0.06 0.16 0.19 0.21 0.12 0.06 0.05 0.07 0.07 0.07 0.08
0.04 0.06 0.06 0.07 0.10 0.10 0.11 0.13 0.16 0.18 0.17 0.17 0.18 0.15 0.16 0.15 0.15 0.14 0.16 0.12 0.10 0.10 0.13 0.15 0.12 0.11 0.12 0.12 0.11 0.08 0.04 0.05 0.05 0.10 0.16 0.13 0.10 0.08 0.07 0.07 0.08 0.08 0.09
0.07 0.12 0.15 0.06 0.08 0.11 0.12 0.12 0.14 0.17 0.21 0.25 0.26 0.20 0.19 0.19 0.18 0.16 0.15 0.16 0.19 0.21 0.20 0.20 0.21 0.19 0.18 0.17 0.10 0.06 0.05 0.06 0.08 0.13 0.17 0.11 0.07 0.05 0.05 0.07 0.08 0.09 0.09
0.09 0.11 0.15 0.16 0.15 0.11 0.14 0.16 0.14 0.17 0.22 0.28 0.28 0.20 0.16 0.18 0.17 0.15 0.14 0.13 0.15 0.19 0.19 0.18 0.16 0.16 0.15 0.10 0.07 0.06 0.06 0.05 0.07 0.10 0.12 0.07 0.04 0.03 0.04 0.07 0.09 0.10 0.11
0.08 0.09 0.13 0.18 0.14 0.11 0.13 0.16 0.15 0.13 0.16 0.18 0.19 0.15 0.12 0.14 0.15 0.13 0.12 0.11 0.11 0.11 0.12 0.12 0.12 0.14 0.14 0.12 0.08 0.06 0.05 0.05 0.05 0.05 0.08 0.09 0.05 0.03 0.04 0.07 0.10 0.12 0.12
0.06 0.07 0.08 0.09 0.11 0.13 0.16 0.19 0.18 0.14 0.13 0.16 0.18 0.18 0.13 0.11 0.11 0.11 0.12 0.10 0.09 0.09 0.09 0.09 0.10 0.13 0.12 0.10 0.10 0.08 0.06 0.05 0.03 0.04 0.04 0.09 0.07 0.05 0.05 0.11 0.16 0.14 0.12
0.05 0.06 0.07 0.10 0.11 0.13 0.13 0.13 0.14 0.14 0.11 0.09 0.11 0.12 0.11 0.10 0.11 0.12 0.11 0.09 0.07 0.07 0.08 0.10 0.12 0.13 0.14 0.13 0.12 0.08 0.06 0.05 0.03 0.04 0.04 0.05 0.08 0.06 0.06 0.06 0.07 0.09 0.10
0.06 0.06 0.06 0.06 0.06 0.07 0.09 0.10 0.10 0.10 0.11 0.10 0.09 0.09 0.09 0.08 0.09 0.11 0.10 0.08 0.07 0.07 0.08 0.08 0.11 0.13 0.14 0.14 0.09 0.07 0.05 0.05 0.05 0.03 0.04 0.05 0.07 0.07 0.07 0.06 0.07 0.10 0.12
0.05 0.05 0.05 0.06 0.06 0.06 0.07 0.10 0.11 0.10 0.09 0.07 0.06 0.06 0.07 0.07 0.08 0.10 0.10 0.08 0.07 0.07 0.09 0.09 0.09 0.10 0.11 0.11 0.07 0.07 0.07 0.06 0.05 0.06 0.04 0.06 0.07 0.07 0.09 0.11 0.12 0.10 0.11
0.04 0.03 0.04 0.05 0.04 0.05 0.06 0.08 0.10 0.09 0.07 0.05 0.04 0.05 0.06 0.06 0.06 0.07 0.09 0.08 0.07 0.08 0.08 0.09 0.09 0.09 0.09 0.10 0.11 0.10 0.08 0.06 0.07 0.07 0.06 0.05 0.05 0.05 0.08 0.10 0.11 0.11 0.10
0.03 0.03 0.04 0.04 0.04 0.06 0.07 0.07 0.08 0.07 0.06 0.04 0.04 0.05 0.05 0.06 0.07 0.06 0.06 0.05 0.05 0.06 0.07 0.07 0.08 0.08 0.09 0.10 0.12 0.12 0.11 0.10 0.08 0.06 0.05 0.03 0.03 0.04 0.06 0.07 0.09 0.11 0.12
0.03 0.03 0.03 0.03 0.04 0.06 0.07 0.08 0.07 0.07 0.06 0.05 0.05 0.06 0.05 0.04 0.06 0.08 0.05 0.04 0.04 0.05 0.06 0.06 0.06 0.06 0.07 0.08 0.09 0.11 0.11 0.12 0.11 0.08 0.05 0.03 0.04 0.05 0.06 0.06 0.06 0.07 0.08
0.03 0.03 0.03 0.03 0.06 0.07 0.06 0.09 0.09 0.08 0.07 0.06 0.06 0.06 0.07 0.07 0.05 0.06 0.05 0.04 0.03 0.04 0.04 0.04 0.04 0.05 0.06 0.06 0.08 0.08 0.09 0.11 0.12 0.09 0.07 0.05 0.05 0.05 0.05 0.05 0.04 0.04 0.05
0.04 0.04 0.04 0.04 0.07 0.12 0.09 0.10 0.09 0.09 0.07 0.06 0.06 0.06 0.06 0.05 0.04 0.03 0.04 0.04 0.03 0.04 0.04 0.04 0.04 0.05 0.06 0.07 0.07 0.08 0.08 0.10 0.12 0.12 0.09 0.06 0.04 0.03 0.03 0.02 0.02 0.02 0.03
0.04 0.03 0.04 0.05 0.05 0.05 0.07 0.08 0.08 0.08 0.07 0.05 0.05 0.05 0.04 0.04 0.03 0.03 0.03 0.03 0.03 0.04 0.05 0.05 0.06 0.07 0.07 0.07 0.07 0.07 0.08 0.09 0.13 0.15 0.11 0.07 0.05 0.03 0.02 0.01 0.02 0.02 0.03
MSLP
1010.29 1010.42 1010.79 1011.34 1011.98 1012.62 1013.15 1013.55 1013.80 1013.94 1014.03 1014.14 1014.31 1014.56 1014.89 1015.25 1015.60 1015.89 1016.11 1016.24 1016.32 1016.39 1016.46 1016.58 1016.74 1016.94 1017.14 1017.32 1017.45 1017.52 1017.55 1017.54 1017.54 1017.57 1017.66 1017.81 1018.00 1018.23 1018.46 1018.68 1018.88 1019.06 1019.22
1010.21 1010.46 1010.95 1011.60 1012.30 1012.94 1013.44 1013.79 1013.99 1014.10 1014.19 1014.34 1014.59 1014.95 1015.36 1015.80 1016.18 1016.47 1016.63 1016.70 1016.70 1016.69 1016.71 1016.79 1016.94 1017.12 1017.32 1017.48 1017.59 1017.64 1017.64 1017.62 1017.62 1017.68 1017.80 1017.99 1018.23 1018.50 1018.76 1018.99 1019.19 1019.37 1019.52
1010.06 1010.45 1011.06 1011.81 1012.57 1013.23 1013.73 1014.05 1014.22 1014.32 1014.43 1014.62 1014.93 1015.34 1015.81 1016.26 1016.64 1016.88 1016.99 1016.99 1016.93 1016.88 1016.88 1016.95 1017.11 1017.30 1017.49 1017.64 1017.73 1017.74 1017.71 1017.67 1017.67 1017.75 1017.91 1018.15 1018.43 1018.74 1019.02 1019.27 1019.48 1019.65 1019.80
1009.87 1010.39 1011.13 1011.97 1012.79 1013.49 1014.00 1014.32 1014.49 1014.60 1014.73 1014.96 1015.30 1015.74 1016.21 1016.64 1016.96 1017.15 1017.19 1017.14 1017.05 1016.99 1017.00 1017.11 1017.30 1017.52 1017.72 1017.85 1017.90 1017.87 1017.80 1017.74 1017.73 1017.82 1018.01 1018.28 1018.60 1018.94 1019.25 1019.51 1019.72 1019.89 1020.04
1009.68 1010.32 1011.16 1012.09 1012.98 1013.72 1014.26 1014.59 1014.78 1014.91 1015.07 1015.32 1015.67 1016.10 1016.54 1016.92 1017.18 1017.30 1017.29 1017.19 1017.10 1017.07 1017.13 1017.30 1017.55 1017.80 1018.01 1018.13 1018.15 1018.07 1017.95 1017.85 1017.82 1017.90 1018.10 1018.40 1018.75 1019.10 1019.42 1019.69 1019.90 1020.07 1020.23
1009.54 1010.27 1011.20 1012.20 1013.14 1013.91 1014.48 1014.84 1015.06 1015.21 1015.40 1015.67 1016.02 1016.43 1016.82 1017.14 1017.33 1017.38 1017.32 1017.22 1017.15 1017.16 1017.30 1017.54 1017.85 1018.15 1018.37 1018.47 1018.44 1018.31 1018.13 1017.98 1017.92 1017.99 1018.19 1018.50 1018.85 1019.21 1019.54 1019.80 1020.01 1020.19 1020.36
1009.52 1010.30 1011.27 1012.31 1013.27 1014.07 1014.65 1015.04 1015.28 1015.47 1015.68 1015.97 1016.32 1016.70 1017.05 1017.31 1017.44 1017.44 1017.35 1017.26 1017.22 1017.29 1017.50 1017.81 1018.17 1018.50 1018.73 1018.80 1018.73 1018.54 1018.31 1018.11 1018.01 1018.06 1018.25 1018.55 1018.91 1019.27 1019.59 1019.84 1020.05 1020.23 1020.42
1009.65 1010.44 1011.42 1012.45 1013.40 1014.19 1014.77 1015.17 1015.44 1015.66 1015.90 1016.21 1016.56 1016.93 1017.25 1017.46 1017.54 1017.51 1017.41 1017.32 1017.31 1017.43 1017.69 1018.06 1018.45 1018.80 1019.01 1019.05 1018.93 1018.70 1018.42 1018.18 1018.05 1018.08 1018.26 1018.55 1018.90 1019.25 1019.57 1019.82 1020.03 1020.22 1020.42
1009.97 1010.72 1011.65 1012.63 1013.53 1014.28 1014.83 1015.23 1015.51 1015.76 1016.04 1016.37 1016.74 1017.11 1017.42 1017.61 1017.66 1017.61 1017.50 1017.41 1017.42 1017.56 1017.84 1018.22 1018.61 1018.94 1019.13 1019.14 1018.98 1018.71 1018.40 1018.14 1017.99 1018.01 1018.19 1018.48 1018.83 1019.18 1019.49 1019.74 1019.95 1020.15 1020.36
1010.45 1011.14 1011.99 1012.87 1013.69 1014.35 1014.86 1015.23 1015.51 1015.79 1016.10 1016.47 1016.87 1017.26 1017.56 1017.75 1017.80 1017.73 1017.61 1017.52 1017.51 1017.64 1017.90 1018.25 1018.61 1018.90 1019.05 1019.03 1018.84 1018.55 1018.23 1017.97 1017.84 1017.86 1018.04 1018.34 1018.69 1019.04 1019.36 1019.62 1019.84 1020.04 1020.26
1011.09 1011.69 1012.42 1013.18 1013.87 1014.43 1014.86 1015.19 1015.46 1015.75 1016.10 1016.51 1016.95 1017.37 1017.70 1017.89 1017.94 1017.87 1017.74 1017.61 1017.58 1017.66 1017.86 1018.15 1018.44 1018.68 1018.78 1018.73 1018.54 1018.26 1017.95 1017.72 1017.60 1017.65 1017.84 1018.14 1018.50 1018.86 1019.19 1019.46 1019.69 1019.90 1020.12
1011.83 1012.33 1012.93 1013.54 1014.09 1014.53 1014.87 1015.14 1015.40 1015.70 1016.08 1016.53 1017.01 1017.45 1017.81 1018.02 1018.08 1018.00 1017.85 1017.69 1017.60 1017.61 1017.74 1017.94 1018.16 1018.33 1018.39 1018.32 1018.14 1017.88 1017.62 1017.42 1017.34 1017.41 1017.61 1017.92 1018.28 1018.65 1018.98 1019.26 1019.50 1019.71 1019.94
1012.63 1013.02 1013.49 1013.95 1014.35 1014.66 1014.91 1015.12 1015.35 1015.66 1016.05 1016.53 1017.04 1017.52 1017.90 1018.14 1018.20 1018.13 1017.95 1017.76 1017.61 1017.55 1017.58 1017.69 1017.83 1017.94 1017.97 1017.90 1017.74 1017.52 1017.31 1017.15 1017.11 1017.19 1017.40 1017.70 1018.05 1018.41 1018.73 1019.02 1019.26 1019.48 1019.70
1013.44 1013.74 1014.07 1014.38 1014.64 1014.83 1014.99 1015.15 1015.35 1015.65 1016.06 1016.55 1017.08 1017.58 1017.98 1018.23 1018.31 1018.23 1018.05 1017.83 1017.63 1017.49 1017.45 1017.48 1017.55 1017.61 1017.62 1017.56 1017.43 1017.27 1017.10 1016.99 1016.96 1017.04 1017.23 1017.50 1017.82 1018.14 1018.45 1018.72 1018.96 1019.18 1019.39
1014.23 1014.45 1014.66 1014.83 1014.96 1015.05 1015.13 1015.24 1015.42 1015.71 1016.11 1016.60 1017.13 1017.63 1018.03 1018.29 1018.38 1018.32 1018.14 1017.90 1017.67 1017.50 1017.39 1017.36 1017.38 1017.41 1017.42 1017.38 1017.29 1017.17 1017.04 1016.95 1016.92 1016.98 1017.12 1017.34 1017.59 1017.87 1018.14 1018.39 1018.61 1018.82 1019.03
1014.99 1015.12 1015.23 1015.29 1015.31 1015.32 1015.33 1015.40 1015.57 1015.84 1016.23 1016.70 1017.21 1017.68 1018.07 1018.33 1018.43 1018.39 1018.23 1018.00 1017.77 1017.57 1017.44 1017.37 1017.36 1017.38 1017.39 1017.37 1017.32 1017.24 1017.14 1017.05 1017.00 1017.01 1017.08 1017.21 1017.38 1017.59 1017.80 1018.02 1018.23 1018.43 1018.63
1015.71 1015.77 1015.78 1015.74 1015.68 1015.62 1015.60 1015.65 1015.80 1016.05 1016.41 1016.85 1017.32 1017.76 1018.12 1018.36 1018.47 1018.44 1018.31 1018.12 1017.91 1017.72 1017.58 1017.51 1017.48 1017.50 1017.52 1017.52 1017.50 1017.44 1017.35 1017.25 1017.16 1017.10 1017.09 1017.12 1017.21 1017.33 1017.49 1017.67 1017.86 1018.05 1018.24
1016.39 1016.38 1016.31 1016.20 1016.07 1015.98 1015.94 1015.98 1016.11 1016.35 1016.68 1017.07 1017.47 1017.86 1018.17 1018.39 1018.50 1018.50 1018.40 1018.25 1018.07 1017.91 1017.79 1017.71 1017.69 1017.71 1017.74 1017.76 1017.75 1017.70 1017.61 1017.50 1017.36 1017.24 1017.15 1017.09 1017.09 1017.14 1017.25 1017.39 1017.56 1017.74 1017.92
1017.05 1016.99 1016.84 1016.66 1016.50 1016.38 1016.34 1016.38 1016.52 1016.74 1017.03 1017.35 1017.69 1018.00 1018.26 1018.45 1018.54 1018.56 1018.49 1018.38 1018.24 1018.11 1018.01 1017.95 1017.93 1017.95 1017.98 1018.00 1018.01 1017.96 1017.87 1017.74 1017.58 1017.40 1017.24 1017.12 1017.06 1017.06 1017.12 1017.24 1017.39 1017.56 1017.72
1017.71 1017.58 1017.38 1017.15 1016.96 1016.84 1016.80 1016.86 1017.00 1017.20 1017.45 1017.71 1017.97 1018.21 1018.40 1018.53 1018.61 1018.63 1018.59 1018.51 1018.41 1018.31 1018.22 1018.17 1018.15 1018.16 1018.18 1018.21 1018.21 1018.18 1018.09 1017.95 1017.77 1017.57 1017.38 1017.22 1017.13 1017.11 1017.15 1017.26 1017.41 1017.56 1017.69
1018.36 1018.19 1017.93 1017.68 1017.47 1017.36 1017.34 1017.41 1017.55 1017.74 1017.94 1018.14 1018.32 1018.47 1018.59 1018.67 1018.71 1018.72 1018.69 1018.63 1018.56 1018.47 1018.40 1018.34 1018.31 1018.31 1018.32 1018.34 1018.34 1018.31 1018.23 1018.10 1017.93 1017.73 1017.55 1017.40 1017.31 1017.30 1017.36 1017.47 1017.61 1017.74 1017.83
1019.00 1018.79 1018.51 1018.23 1018.03 1017.93 1017.93 1018.02 1018.16 1018.33 1018.49 1018.62 1018.72 1018.79 1018.83 1018.85 1018.85 1018.84 1018.80 1018.75 1018.69 1018.61 1018.53 1018.46 1018.41 1018.39 1018.39 1018.40 1018.40 1018.38 1018.31 1018.20 1018.06 1017.90 1017.75 1017.64 1017.59 1017.62 1017.71 1017.84 1017.99 1018.09 1018.13
1019.61 1019.38 1019.08 1018.81 1018.62 1018.54 1018.56 1018.66 1018.80 1018.95 1019.06 1019.13 1019.16 1019.14 1019.11 1019.07 1019.02 1018.98 1018.93 1018.87 1018.80 1018.71 1018.62 1018.54 1018.47 1018.43 1018.41 1018.40 1018.40 1018.39 1018.34 1018.26 1018.16 1018.04 1017.95 1017.90 1017.92 1018.00 1018.15 1018.31 1018.46 1018.55 1018.52
1020.17 1019.94 1019.65 1019.40 1019.23 1019.16 1019.20 1019.30 1019.43 1019.55 1019.62 1019.63 1019.58 1019.50 1019.40 1019.30 1019.21 1019.13 1019.06 1018.98 1018.89 1018.80 1018.69 1018.59 1018.50 1018.44 1018.40 1018.38 1018.38 1018.36 1018.33 1018.28 1018.22 1018.15 1018.12 1018.14 1018.23 1018.38 1018.58 1018.79 1018.96 1019.03 1018.95
1020.65 1020.45 1020.19 1019.96 1019.81 1019.76 1019.80 1019.90 1020.01 1020.08 1020.11 1020.06 1019.96 1019.82 1019.66 1019.51 1019.38 1019.27 1019.17 1019.07 1018.97 1018.86 1018.74 1018.63 1018.52 1018.44 1018.39 1018.36 1018.34 1018.33 1018.30 1018.26 1018.22 1018.20 1018.22 1018.30 1018.45 1018.68 1018.94 1019.20 1019.40 1019.47 1019.36
1021.05 1020.88 1020.66 1020.47 1020.34 1020.31 1020.34 1020.41 1020.49 1020.52 1020.50 1020.40 1020.25 1020.06 1019.87 1019.68 1019.52 1019.38 1019.26 1019.15 1019.03 1018.91 1018.78 1018.66 1018.54 1018.45 1018.38 1018.34 1018.31 1018.27 1018.24 1018.20 1018.16 1018.16 1018.21 1018.34 1018.55 1018.83 1019.16 1019.48 1019.73 1019.82 1019.72
Thickness
5811 5804 5799 5797 5794 5791 5788 5786 5783 5781 5778 5776 5774 5772 5771 5769 5768 5767 5765 5763 5762 5760 5759 5758 5756 5755 5754 5754 5753 5752 5751 5751 5750 5749 5748 5747 5745 5744 5743 5741 5740 5738 5736
5811 5802 5797 5794 5791 5788 5785 5782 5780 5777 5775 5772 5771 5769 5767 5765 5764 5763 5762 5760 5759 5758 5756 5755 5754 5753 5752 5751 5750 5749 5749 5748 5748 5747 5746 5745 5743 5741 5740 5739 5739 5736 5734
5808 5799 5794 5790 5787 5785 5782 5779 5776 5774 5771 5769 5767 5765 5763 5762 5761 5759 5758 5757 5756 5755 5754 5752 5751 5750 5749 5749 5748 5747 5747 5746 5746 5745 5745 5744 5742 5739 5738 5736 5735 5733 5732
5804 5797 5792 5787 5784 5781 5777 5774 5772 5770 5767 5765 5763 5762 5760 5758 5757 5756 5755 5754 5753 5752 5751 5750 5749 5748 5747 5746 5746 5745 5745 5745 5745 5744 5744 5744 5741 5737 5736 5734 5733 5731 5730
5801 5794 5787 5783 5780 5776 5773 5770 5768 5766 5764 5762 5759 5758 5756 5755 5754 5753 5751 5750 5750 5749 5748 5747 5746 5746 5745 5744 5744 5743 5743 5743 5743 5743 5744 5743 5740 5737 5734 5732 5731 5729 5727
5797 5790 5782 5779 5775 5772 5769 5766 5764 5762 5759 5758 5756 5754 5752 5751 5750 5749 5748 5747 5746 5746 5745 5744 5744 5743 5742 5742 5742 5741 5741 5742 5742 5743 5744 5743 5739 5736 5733 5731 5729 5727 5726
5794 5786 5778 5774 5771 5768 5765 5762 5760 5757 5755 5753 5751 5749 5748 5747 5746 5745 5745 5744 5743 5743 5742 5741 5741 5740 5740 5740 5739 5739 5739 5739 5740 5742 5743 5742 5739 5735 5732 5729 5728 5726 5724
5791 5782 5774 5769 5766 5763 5760 5757 5755 5752 5750 5748 5746 5745 5744 5743 5743 5742 5741 5741 5740 5740 5739 5739 5738 5738 5737 5737 5737 5737 5737 5737 5740 5741 5742 5739 5737 5734 5731 5728 5726 5725 5723
5787 5778 5771 5766 5761 5758 5755 5752 5749 5747 5745 5743 5742 5741 5740 5739 5739 5738 5738 5737 5737 5737 5736 5736 5736 5735 5735 5735 5734 5735 5735 5735 5735 5738 5739 5736 5734 5732 5730 5727 5724 5723 5722
5781 5775 5769 5763 5759 5754 5750 5747 5745 5743 5741 5739 5737 5736 5736 5735 5735 5735 5735 5734 5733 5733 5733 5733 5733 5733 5733 5733 5733 5733 5733 5733 5734 5735 5735 5733 5731 5730 5728 5726 5723 5721 5720
5773 5769 5766 5761 5756 5752 5748 5743 5740 5738 5736 5734 5732 5732 5731 5731 5732 5731 5731 5731 5730 5730 5730 5730 5730 5730 5730 5731 5731 5731 5730 5731 5732 5732 5732 5730 5728 5726 5725 5724 5722 5720 5718
5763 5762 5761 5757 5752 5749 5746 5740 5737 5735 5733 5731 5729 5728 5728 5728 5728 5729 5728 5727 5727 5727 5727 5727 5727 5727 5727 5729 5730 5729 5729 5730 5732 5730 5728 5727 5725 5724 5723 5722 5720 5718 5716
5758 5756 5754 5753 5748 5746 5742 5737 5734 5732 5730 5728 5726 5726 5725 5724 5724 5725 5724 5724 5723 5723 5724 5724 5724 5724 5726 5727 5728 5728 5728 5730 5731 5729 5727 5725 5722 5721 5720 5719 5718 5716 5715
5752 5749 5749 5747 5743 5740 5737 5735 5732 5729 5727 5724 5721 5720 5720 5719 5719 5721 5721 5721 5721 5720 5721 5721 5722 5723 5723 5724 5726 5727 5727 5728 5728 5727 5723 5721 5719 5719 5718 5717 5715 5714 5712
5744 5741 5739 5738 5735 5733 5730 5727 5726 5724 5722 5721 5718 5716 5716 5715 5715 5717 5717 5717 5717 5717 5718 5718 5719 5719 5720 5721 5723 5724 5724 5724 5724 5721 5719 5718 5717 5716 5715 5714 5713 5711 5710
5737 5734 5732 5730 5728 5726 5724 5721 5720 5718 5716 5715 5713 5713 5712 5711 5710 5712 5713 5713 5713 5714 5715 5714 5714 5714 5715 5716 5717 5718 5719 5719 5718 5717 5715 5714 5713 5712 5711 5711 5710 5709 5708
5730 5728 5725 5724 5722 5720 5718 5717 5715 5712 5710 5708 5707 5706 5705 5706 5705 5706 5708 5709 5708 5709 5709 5709 5709 5710 5710 5711 5711 5712 5712 5713 5713 5712 5711 5710 5708 5707 5706 5706 5706 5705 5705
5724 5721 5719 5719 5715 5713 5711 5710 5708 5706 5703 5702 5700 5699 5698 5699 5700 5700 5702 5702 5703 5704 5704 5704 5705 5704 5704 5704 5704 5706 5707 5707 5707 5707 5705 5704 5704 5702 5701 5701 5701 5701 5701
5717 5714 5712 5710 5708 5707 5705 5703 5701 5699 5696 5696 5694 5692 5691 5692 5693 5693 5694 5695 5696 5698 5698 5699 5699 5698 5697 5697 5698 5699 5700 5701 5701 5701 5699 5698 5698 5696 5695 5695 5695 5696 5696
5710 5707 5705 5703 5700 5699 5698 5696 5693 5692 5690 5688 5687 5685 5685 5685 5686 5686 5688 5689 5690 5691 5692 5692 5691 5692 5691 5691 5692 5693 5693 5693 5694 5694 5693 5692 5691 5690 5689 5688 5689 5689 5690
5703 5700 5697 5694 5693 5691 5689 5687 5685 5683 5682 5681 5679 5677 5678 5678 5678 5679 5680 5681 5683 5684 5684 5684 5684 5684 5684 5685 5684 5682 5684 5686 5687 5686 5685 5684 5683 5682 5681 5681 5681 5682 5683
5695 5693 5690 5687 5685 5683 5681 5680 5679 5676 5675 5673 5671 5671 5670 5670 5670 5672 5671 5673 5675 5676 5677 5677 5677 5677 5678 5679 5676 5673 5672 5674 5677 5678 5677 5676 5674 5674 5673 5673 5673 5674 5675
5688 5686 5683 5680 5678 5676 5675 5674 5672 5670 5667 5665 5664 5662 5662 5662 5662 5663 5664 5665 5667 5668 5669 5669 5669 5670 5669 5671 5672 5669 5665 5665 5665 5667 5667 5666 5665 5665 5665 5665 5665 5666 5667
5682 5679 5675 5672 5670 5669 5668 5666 5663 5659 5657 5656 5655 5654 5653 5653 5653 5655 5656 5657 5659 5660 5661 5661 5662 5662 5662 5662 5664 5665 5664 5663 5659 5656 5656 5656 5656 5655 5655 5656 5656 5657 5658
5677 5673 5668 5665 5663 5661 5659 5657 5655 5652 5650 5648 5647 5646 5645 5644 5645 5646 5647 5648 5650 5651 5652 5652 5653 5653 5654 5654 5654 5655 5656 5656 5656 5652 5648 5646 5646 5645 5646 5646 5647 5648 5649
5671 5666 5662 5658 5655 5653 5650 5648 5645 5643 5641 5639 5638 5637 5637 5636 5636 5637 5639 5639 5640 5642 5642 5643 5644 5645 5646 5646 5646 5647 5647 5647 5647 5647 5643 5640 5637 5635 5636 5637 5638 5638 5639